Dewpoint
39 38 38 38 38 39 40 40 41 40 40 40 41 41 41 40 40 40 41 41 41 41 41 41 40 41 41 41 41 41 41 41 41 41 41 41 42 44 45 45 45 46 46 47 47 48 48 49 50 50 50 50 50 50 51 51 50 50 51 51 52 52 53 54 58 60 61 60 60
39 39 39 39 39 39 40 40 41 41 40 40 41 41 41 41 40 40 40 41 41 41 41 41 41 40 40 41 41 41 40 40 41 41 40 40 42 43 44 45 45 46 47 47 47 47 48 48 49 49 49 50 50 50 50 50 50 50 50 50 50 51 52 52 53 56 59 60 60
39 39 39 39 38 38 39 39 40 41 41 41 41 41 42 42 41 40 40 41 41 41 41 41 41 41 41 41 41 41 40 40 40 40 40 40 41 41 42 44 44 45 46 47 47 47 47 48 48 49 49 49 49 49 49 50 50 50 49 49 50 50 51 51 51 52 54 58 60
40 39 39 38 38 38 39 39 40 40 41 41 42 42 42 42 41 41 40 41 41 42 42 41 41 41 41 41 41 40 40 40 40 40 40 40 40 41 42 43 43 44 45 46 47 47 48 48 48 48 48 49 49 49 49 49 50 50 49 49 49 49 49 50 51 51 52 54 58
40 40 39 38 38 39 39 40 40 40 41 41 41 41 41 41 41 41 41 41 41 41 42 42 42 42 42 41 40 40 40 40 40 40 40 40 40 41 41 42 43 44 45 45 46 47 47 47 47 47 47 48 48 48 49 49 49 49 49 49 49 49 49 49 50 50 51 51 54
40 40 40 40 39 39 39 40 40 40 40 41 40 40 40 39 40 40 40 40 40 41 41 42 42 42 42 41 40 40 40 40 40 40 40 40 40 41 41 42 43 44 44 45 45 46 47 47 46 46 46 47 48 48 48 48 49 49 49 49 49 49 49 49 49 50 50 51 52
41 41 41 41 40 40 40 40 40 40 40 40 40 40 39 39 39 39 40 41 41 41 41 42 42 41 41 41 40 40 40 40 40 40 40 40 40 41 42 42 43 43 43 44 45 45 46 46 45 45 45 46 46 47 47 48 48 48 49 48 49 49 48 48 49 49 49 50 51
41 41 41 41 41 40 40 39 39 39 39 40 40 40 40 40 40 40 39 40 41 41 42 42 42 41 41 41 41 41 40 40 40 40 40 40 40 40 41 42 42 43 43 44 44 45 45 45 45 45 45 45 45 46 46 47 48 48 48 48 48 48 48 48 48 49 49 49 49
41 41 41 41 40 40 40 39 39 39 39 39 40 40 40 40 41 41 40 40 40 42 43 43 43 42 41 41 42 41 41 41 40 40 40 40 40 40 41 41 42 43 43 43 43 44 44 44 45 45 45 45 45 45 46 46 47 47 47 47 47 47 47 48 48 48 48 48 48
41 41 41 40 40 40 39 39 39 38 38 38 39 39 40 40 40 41 41 41 42 42 43 43 43 43 42 41 41 41 41 41 40 40 40 40 40 40 41 41 42 42 43 43 43 43 44 44 44 45 45 45 45 45 45 46 46 46 46 46 46 46 46 47 47 47 48 48 48
41 41 41 40 40 40 39 38 38 38 38 38 39 39 39 40 40 40 41 42 42 42 43 43 43 43 42 41 41 41 41 41 40 40 40 40 40 40 40 41 41 42 43 43 43 43 43 44 44 45 45 45 45 45 45 45 45 45 46 45 45 45 45 45 46 46 47 47 47
40 41 41 40 40 40 39 39 38 39 39 39 40 40 40 39 40 40 41 42 41 42 43 43 43 43 42 41 41 41 41 41 40 40 40 40 40 40 40 40 41 41 42 43 43 43 43 43 44 44 44 45 45 45 45 45 44 45 45 45 44 44 44 44 45 45 46 46 47
40 40 40 40 39 39 39 39 39 39 39 39 40 40 40 39 39 40 40 41 41 41 42 42 42 42 42 41 41 40 40 40 40 40 40 39 39 39 40 40 40 41 41 42 42 42 43 43 43 44 44 44 44 44 44 44 44 43 43 43 43 43 43 43 44 44 45 45 46
39 39 39 39 39 38 38 38 39 39 39 39 40 40 40 39 39 39 40 40 40 41 41 40 40 40 40 41 40 40 40 40 40 40 40 39 39 39 39 40 40 40 41 41 41 42 42 42 43 43 43 43 43 43 44 44 43 43 42 42 42 42 42 42 43 43 44 44 45
37 37 37 37 37 37 37 37 37 38 38 38 38 39 39 38 38 38 38 39 39 40 40 39 39 39 39 39 40 40 40 40 40 40 40 39 39 38 38 39 40 40 40 41 41 41 42 42 42 42 43 43 43 43 43 43 43 43 42 42 41 41 42 42 42 42 43 43 44
36 36 36 36 36 36 36 36 36 37 37 37 37 37 37 37 37 36 37 37 38 38 38 38 38 38 38 38 38 39 39 39 39 39 39 39 39 38 38 38 39 39 40 40 40 41 41 42 42 42 42 42 42 43 43 43 43 43 42 42 41 41 41 41 41 41 42 42 43
35 35 35 35 35 35 35 36 36 36 36 37 37 36 36 36 36 36 36 36 36 37 37 37 37 37 37 37 37 37 37 37 38 38 38 38 38 38 38 38 38 39 39 40 40 41 41 41 41 42 42 42 42 42 42 43 43 42 42 41 41 41 41 41 41 41 41 41 42
35 35 35 34 35 35 35 36 36 36 36 37 37 36 36 36 36 36 36 36 36 36 36 37 37 37 36 37 37 37 36 36 36 36 36 37 37 37 37 37 37 38 38 39 39 40 40 41 41 41 41 41 41 42 42 42 42 42 42 41 41 41 40 40 40 40 40 41 41
35 35 35 35 35 35 35 35 36 36 36 36 36 36 36 36 36 36 36 36 36 36 36 36 36 36 37 37 37 37 36 36 36 36 36 36 36 36 36 36 36 36 36 37 38 39 40 40 40 40 41 41 41 41 42 42 42 42 42 42 41 41 40 40 40 40 40 40 41
35 35 35 35 35 35 35 35 35 35 35 36 36 36 36 36 36 36 36 36 36 36 37 36 36 36 37 37 37 37 36 36 37 37 37 37 36 36 36 36 35 35 35 36 36 37 39 39 39 40 40 40 40 41 41 42 42 42 42 42 41 41 40 40 40 40 40 40 40
34 35 35 35 35 35 35 35 35 35 35 35 35 35 36 36 36 36 36 36 36 36 36 36 36 36 36 37 37 36 36 36 36 36 37 37 37 37 36 36 35 35 35 35 35 36 38 39 39 39 39 39 40 40 40 41 41 41 41 42 41 41 41 40 40 40 40 40 40
35 35 35 35 35 35 35 35 35 34 34 34 34 35 35 35 35 36 36 36 36 36 36 36 36 36 36 37 37 37 36 36 36 36 36 36 36 36 36 36 36 36 36 36 36 37 38 38 39 39 38 38 39 40 39 39 40 40 40 40 41 41 41 40 40 40 40 40 40
34 34 34 35 35 34 34 34 34 34 34 34 34 34 35 35 35 35 35 35 35 35 36 36 36 36 36 36 37 37 37 36 36 36 36 36 35 35 35 35 35 35 35 35 36 36 37 37 38 38 38 38 39 39 38 38 38 38 38 38 39 40 40 40 40 40 40 40 40
33 33 33 34 34 34 34 34 34 34 34 34 34 34 34 34 34 35 35 35 35 35 35 35 35 36 36 36 36 37 36 36 36 36 36 35 35 35 34 34 34 34 34 35 36 36 36 36 37 37 37 37 38 37 37 37 37 37 36 36 37 38 39 39 39 39 40 40 40
33 32 32 32 33 33 33 34 34 34 34 34 35 34 34 34 34 34 34 34 34 34 35 35 35 35 35 35 36 36 36 36 36 36 36 35 35 35 34 34 34 34 34 35 36 37 37 38 37 37 37 37 37 37 37 37 36 36 35 35 36 36 36 37 38 38 38 39 39
32 32 32 32 32 32 33 33 34 34 34 35 35 35 34 34 34 34 34 34 34 34 35 35 35 35 35 35 35 35 36 36 36 36 36 35 35 35 34 34 34 33 34 35 36 37 38 39 39 39 38 37 37 36 36 37 36 35 35 36 36 35 35 36 36 36 37 37 38
32 32 32 32 32 32 32 33 34 34 34 35 35 35 34 34 34 33 33 34 34 34 35 35 35 35 35 35 35 35 35 36 36 36 36 36 35 35 35 35 34 33 34 35 36 38 39 40 40 40 39 38 38 37 37 37 36 35 35 36 36 35 35 35 35 36 36 36 37
31 31 31 31 31 31 32 33 33 34 34 34 34 35 34 34 33 33 33 33 34 34 34 34 34 35 35 35 35 35 35 36 36 36 36 36 36 36 35 35 35 35 35 36 37 38 39 40 40 41 40 40 38 38 37 37 36 35 35 35 35 35 35 34 35 35 35 36 36
31 31 31 31 31 31 31 32 33 33 33 34 34 34 34 33 33 33 33 33 33 33 34 34 34 35 35 35 35 35 35 35 36 36 36 36 36 36 36 36 36 36 36 37 38 38 39 39 40 41 41 41 39 38 37 36 36 36 35 34 34 34 34 34 34 34 35 35 36
31 31 31 31 31 31 31 32 32 33 33 33 33 33 33 33 33 33 33 32 33 33 34 34 35 35 35 35 35 35 35 35 35 36 36 36 35 35 35 36 36 36 37 38 38 39 39 39 40 40 41 42 40 39 37 37 36 36 36 35 35 35 34 34 34 35 35 35 35
31 31 31 31 31 31 31 32 32 32 32 32 32 33 33 33 32 33 33 33 33 34 34 34 35 35 35 35 35 35 35 35 35 35 35 35 35 35 35 36 36 36 37 38 39 39 39 39 39 40 41 42 40 39 38 37 36 36 36 36 36 35 35 34 35 35 35 35 35
32 32 32 32 31 31 31 31 31 31 31 31 31 32 33 33 33 33 33 33 34 34 34 34 34 34 34 35 35 35 35 35 35 35 35 35 35 35 35 35 35 36 37 39 39 40 40 39 39 40 40 42 40 39 37 37 36 36 36 36 35 35 34 33 34 34 34 34 34
32 32 32 32 32 32 32 32 32 32 31 31 31 32 33 33 33 34 34 34 33 33 33 33 34 34 34 34 34 34 35 35 35 35 35 35 35 35 34 35 35 36 37 39 40 40 40 40 39 40 40 42 40 39 37 37 36 36 36 35 34 34 34 34 34 34 33 32 32
32 32 32 32 33 33 33 33 33 33 32 32 32 32 33 33 34 34 34 33 33 33 33 33 33 33 33 33 34 34 34 34 35 35 35 35 35 34 34 34 34 35 37 38 40 40 40 40 39 40 40 41 40 38 37 36 36 36 35 35 34 34 33 33 33 32 32 31 31
31 31 31 32 32 32 33 33 33 33 33 32 32 33 33 33 34 33 33 33 33 32 32 33 33 33 33 33 34 34 34 34 34 34 35 35 34 34 34 34 34 35 36 38 39 40 40 40 39 39 40 40 39 37 36 36 36 35 35 34 33 32 31 31 31 31 31 31 31
31 31 31 31 32 32 33 33 34 33 33 33 33 33 33 33 33 33 33 33 33 32 32 33 33 33 33 33 33 34 34 34 33 34 34 34 34 34 34 34 34 35 36 38 39 40 40 40 39 39 39 40 38 37 36 36 35 34 34 33 33 31 30 30 30 30 30 30 30
31 31 31 31 32 32 33 33 33 33 33 33 34 34 33 33 33 33 33 32 32 32 32 32 33 33 33 33 33 33 34 34 33 33 33 33 33 33 34 34 34 34 36 37 38 40 40 40 40 39 39 39 38 37 36 36 34 34 33 33 32 30 29 29 28 29 29 30 30
30 31 31 31 31 32 32 33 33 33 33 33 33 33 33 33 33 32 32 32 32 32 32 32 32 33 33 33 33 34 34 34 34 34 33 33 33 33 33 34 34 34 35 36 38 39 40 40 40 39 39 38 38 37 36 36 34 33 33 32 31 30 28 27 28 28 29 30 30
30 30 31 31 31 32 32 32 33 33 33 33 33 33 33 33 32 32 32 32 32 32 32 32 32 33 33 33 33 33 33 34 34 34 34 33 33 34 34 34 34 34 35 36 37 38 40 40 40 39 39 38 38 37 36 36 35 34 32 31 31 30 28 27 27 28 29 29 31
30 30 31 31 31 32 32 32 33 33 33 33 33 33 33 33 33 32 32 32 32 31 31 32 32 32 33 33 33 32 32 33 34 34 34 34 34 34 34 34 34 34 34 35 36 38 39 40 40 40 39 37 37 37 37 36 35 34 33 31 31 30 29 27 27 28 28 29 30
29 30 31 31 31 32 32 32 32 33 33 33 33 33 33 33 33 32 32 31 31 31 31 31 31 32 32 32 32 32 32 32 33 34 34 34 34 34 34 34 34 34 34 34 35 37 39 40 40 40 39 37 37 37 36 36 35 35 33 32 31 30 30 29 28 28 28 29 30